New York, NY

3:50 AM EDT on September 19, 2019 (GMT -0400)
La Guardia

Weather History for KLGA - August, 2019

Change the Weather History Date:

Tuesday, August 20, 2019

  Actual Average Record
Temperature  
Mean Temperature 83 °F 76 °F  
Max Temperature 89 °F 83 °F 98 °F (1955)
Min Temperature 76 °F 69 °F 58 °F (1949)
Degree Days  
Heating Degree Days 0 0  
Month to date heating degree days 0 0  
Since 1 June heating degree days 4 16  
Since 1 July heating degree days 0 0  
Cooling Degree Days 18 11  
Month to date cooling degree days 292 240  
Year to date cooling degree days 1117 922  
Since 1 June cooling degree days 1055 856  
Growing Degree Days 32 (Base 50)    
Moisture  
Dew Point 65 °F    
Average Humidity 65    
Maximum Humidity 87    
Minimum Humidity 42    
Precipitation  
Precipitation 0.00 in 0.14 in 1.31 in (1963)
Month to date precipitation 1.45 2.78  
Year to date precipitation 34.15 28.91  
Snow  
Snow 0.00 in 0.00 in - ()
Month to date snowfall 0.0 0.0  
Since 1 July snowfall 0.0 0.0  
Snow Depth 0.00 in    
Sea Level Pressure  
Sea Level Pressure 30.05 in    
Wind  
Wind Speed 8 mph (East)    
Max Wind Speed 16 mph    
Max Gust Speed 21 mph    
Visibility 10 miles    
Events      
T = Trace of Precipitation, MM = Missing Value Source: NWS Daily Summary

Daily Weather History Graph

Daily Weather History Graph

Search for Another Location

Airport or City:

Astronomy

Aug. 20, 2019 Rise Set
Actual Time 6:10 AM EDT 7:46 PM EDT
Civil Twilight 5:41 AM EDT 8:15 PM EDT
Nautical Twilight 5:06 AM EDT 8:50 PM EDT
Astronomical Twilight 4:28 AM EDT 9:27 PM EDT
Moon 10:32 PM EDT (8/20) 10:47 AM EDT (8/20)
Length of Visible Light 14h 34m
Length of Day
13h 36m
Waning Gibbous, 78% of the Moon is Illuminated
Aug 20
Waning Gibbous
Aug 23
Last Quarter
Aug 30
New
Sep 5
First Quarter
Sep 14
Full

Hourly Weather History & Observations

Time (EDT) Temp. Heat Index Dew Point Humidity Pressure Visibility Wind Dir Wind Speed Gust Speed Precip Events Conditions
12:51 AM 80.1 °F 82.9 °F 69.1 °F 69% 30.00 in 10.0 mi NW 3.5 mph - N/A   Scattered Clouds
1:51 AM 80.1 °F 83.2 °F 70.0 °F 71% 30.01 in 10.0 mi West 4.6 mph - N/A   Scattered Clouds
2:51 AM 79.0 °F - 68.0 °F 69% 30.01 in 10.0 mi Calm Calm - N/A   Mostly Cloudy
3:51 AM 80.1 °F 82.7 °F 68.0 °F 67% 30.02 in 10.0 mi NW 3.5 mph - N/A   Mostly Cloudy
4:51 AM 78.1 °F - 68.0 °F 71% 30.04 in 10.0 mi North 5.8 mph - N/A   Mostly Cloudy
5:51 AM 75.9 °F - 71.1 °F 85% 30.06 in 10.0 mi ENE 6.9 mph - N/A   Mostly Cloudy
6:51 AM 75.9 °F - 68.0 °F 76% 30.09 in 10.0 mi ENE 5.8 mph - N/A   Mostly Cloudy
7:51 AM 77.0 °F - 64.0 °F 64% 30.10 in 10.0 mi NE 10.4 mph - N/A   Scattered Clouds
8:51 AM 78.1 °F - 61.0 °F 56% 30.10 in 10.0 mi NE 11.5 mph - N/A   Scattered Clouds
9:51 AM 80.1 °F 81.1 °F 61.0 °F 52% 30.10 in 10.0 mi ENE 9.2 mph - N/A   Scattered Clouds
10:51 AM 81.0 °F 81.7 °F 61.0 °F 50% 30.10 in 10.0 mi ENE 9.2 mph - N/A   Partly Cloudy
11:51 AM 84.0 °F 84.5 °F 62.1 °F 47% 30.10 in 10.0 mi ENE 8.1 mph - N/A   Partly Cloudy
12:51 PM 84.9 °F 85.4 °F 62.1 °F 46% 30.08 in 10.0 mi NE 5.8 mph - N/A   Scattered Clouds
1:51 PM 86.0 °F 86.8 °F 63.0 °F 46% 30.07 in 10.0 mi NNE 6.9 mph - N/A   Mostly Cloudy
2:51 PM 88.0 °F 88.7 °F 63.0 °F 43% 30.07 in 10.0 mi South 12.7 mph 19.6 mph N/A   Mostly Cloudy
3:51 PM 88.0 °F 88.4 °F 62.1 °F 42% 30.05 in 10.0 mi SSE 11.5 mph - N/A   Mostly Cloudy
4:51 PM 88.0 °F 88.4 °F 62.1 °F 42% 30.04 in 10.0 mi South 10.4 mph - N/A   Mostly Cloudy
5:51 PM 86.0 °F 86.1 °F 61.0 °F 43% 30.04 in 10.0 mi South 13.8 mph - N/A   Scattered Clouds
6:51 PM 84.9 °F 85.0 °F 61.0 °F 44% 30.03 in 10.0 mi SSE 9.2 mph - N/A   Scattered Clouds
7:51 PM 82.0 °F 83.0 °F 62.1 °F 51% 30.02 in 10.0 mi South 10.4 mph - N/A   Scattered Clouds
8:51 PM 82.0 °F 83.1 °F 63.0 °F 52% 30.03 in 10.0 mi South 8.1 mph - N/A   Scattered Clouds
9:51 PM 81.0 °F 83.0 °F 66.0 °F 60% 30.04 in 10.0 mi South 9.2 mph - N/A   Scattered Clouds
10:51 PM 80.1 °F 82.3 °F 66.9 °F 64% 30.04 in 10.0 mi South 9.2 mph - N/A   Mostly Cloudy
11:51 PM 80.1 °F 82.9 °F 69.1 °F 69% 30.02 in 10.0 mi Variable 5.8 mph - N/A   Scattered Clouds